Precipitable_Water
0.31 0.31 0.31 0.31 0.32 0.32 0.32 0.32 0.32 0.32 0.32 0.33 0.33 0.33 0.33 0.33 0.33 0.33 0.34 0.35 0.35 0.34 0.34 0.34 0.32 0.31 0.30 0.30 0.28 0.28 0.29 0.28 0.27 0.27 0.26 0.26 0.27 0.26 0.27 0.27 0.27 0.28 0.28 0.28 0.28 0.29 0.29 0.30 0.31 0.30 0.31 0.30 0.30 0.30 0.30 0.30 0.29 0.29 0.28 0.27 0.25 0.24 0.24 0.24 0.23 0.23 0.20 0.18 0.19 0.18 0.18 0.18 0.18 0.18 0.17 0.16 0.16 0.16 0.17 0.16 0.16 0.17 0.17 0.18 0.19
0.30 0.30 0.30 0.31 0.31 0.32 0.32 0.32 0.32 0.32 0.32 0.33 0.33 0.33 0.33 0.34 0.34 0.34 0.35 0.35 0.35 0.34 0.33 0.33 0.32 0.31 0.30 0.29 0.29 0.28 0.28 0.28 0.27 0.27 0.27 0.27 0.27 0.27 0.27 0.28 0.27 0.28 0.28 0.29 0.29 0.28 0.28 0.29 0.29 0.29 0.29 0.29 0.28 0.28 0.28 0.27 0.27 0.27 0.26 0.25 0.25 0.24 0.23 0.24 0.24 0.23 0.19 0.17 0.16 0.15 0.16 0.16 0.17 0.18 0.17 0.17 0.16 0.15 0.15 0.15 0.15 0.15 0.16 0.17 0.18
0.29 0.29 0.30 0.31 0.31 0.32 0.32 0.32 0.32 0.33 0.33 0.33 0.34 0.34 0.34 0.35 0.35 0.35 0.35 0.35 0.34 0.34 0.33 0.32 0.32 0.32 0.31 0.29 0.29 0.28 0.29 0.28 0.28 0.28 0.28 0.28 0.28 0.28 0.28 0.28 0.27 0.27 0.28 0.29 0.29 0.29 0.29 0.29 0.28 0.28 0.27 0.27 0.26 0.25 0.25 0.25 0.25 0.24 0.24 0.23 0.23 0.24 0.23 0.24 0.23 0.23 0.18 0.18 0.18 0.15 0.12 0.12 0.14 0.15 0.17 0.16 0.15 0.15 0.15 0.15 0.15 0.14 0.14 0.15 0.15
0.28 0.29 0.29 0.30 0.31 0.32 0.32 0.32 0.33 0.33 0.34 0.34 0.35 0.35 0.35 0.35 0.35 0.36 0.35 0.35 0.34 0.34 0.34 0.34 0.33 0.31 0.31 0.30 0.30 0.29 0.28 0.28 0.28 0.28 0.28 0.28 0.28 0.28 0.28 0.28 0.27 0.26 0.27 0.28 0.28 0.28 0.28 0.27 0.26 0.25 0.25 0.25 0.24 0.23 0.23 0.23 0.23 0.23 0.23 0.23 0.23 0.20 0.20 0.20 0.22 0.22 0.20 0.18 0.14 0.14 0.13 0.12 0.10 0.11 0.13 0.14 0.15 0.15 0.15 0.14 0.14 0.13 0.13 0.14 0.15
0.29 0.29 0.30 0.31 0.31 0.32 0.32 0.33 0.34 0.34 0.35 0.35 0.36 0.36 0.35 0.35 0.36 0.36 0.35 0.35 0.35 0.35 0.34 0.34 0.32 0.30 0.30 0.29 0.29 0.28 0.28 0.28 0.27 0.27 0.27 0.28 0.27 0.26 0.25 0.25 0.24 0.24 0.25 0.25 0.24 0.24 0.25 0.24 0.23 0.22 0.22 0.22 0.21 0.21 0.21 0.21 0.21 0.22 0.22 0.21 0.21 0.20 0.18 0.19 0.20 0.20 0.20 0.20 0.17 0.14 0.13 0.11 0.11 0.12 0.13 0.12 0.14 0.14 0.13 0.13 0.13 0.13 0.13 0.13 0.13
0.30 0.30 0.31 0.31 0.32 0.33 0.34 0.34 0.35 0.35 0.36 0.37 0.37 0.37 0.37 0.36 0.36 0.36 0.36 0.36 0.35 0.35 0.33 0.32 0.30 0.29 0.28 0.27 0.27 0.26 0.26 0.26 0.25 0.25 0.25 0.25 0.24 0.23 0.22 0.22 0.22 0.22 0.22 0.22 0.22 0.22 0.21 0.19 0.18 0.17 0.16 0.17 0.17 0.18 0.18 0.19 0.18 0.18 0.19 0.19 0.19 0.20 0.19 0.18 0.17 0.19 0.19 0.19 0.20 0.18 0.17 0.13 0.12 0.12 0.12 0.08 0.13 0.13 0.14 0.14 0.13 0.13 0.14 0.13 0.13
0.32 0.32 0.32 0.33 0.33 0.34 0.35 0.36 0.36 0.37 0.38 0.38 0.39 0.38 0.38 0.37 0.37 0.36 0.36 0.35 0.34 0.34 0.31 0.30 0.28 0.27 0.26 0.25 0.25 0.25 0.24 0.24 0.24 0.24 0.24 0.22 0.22 0.20 0.20 0.19 0.20 0.20 0.19 0.19 0.20 0.19 0.17 0.16 0.16 0.15 0.15 0.14 0.14 0.15 0.15 0.15 0.15 0.15 0.15 0.16 0.16 0.17 0.17 0.15 0.15 0.16 0.17 0.17 0.18 0.18 0.18 0.18 0.17 0.14 0.11 0.12 0.09 0.10 0.13 0.13 0.13 0.13 0.13 0.13 0.12
0.32 0.33 0.33 0.34 0.35 0.36 0.36 0.38 0.38 0.39 0.40 0.40 0.39 0.38 0.37 0.36 0.35 0.34 0.34 0.33 0.32 0.31 0.28 0.26 0.25 0.24 0.24 0.23 0.23 0.22 0.22 0.22 0.22 0.21 0.21 0.20 0.19 0.18 0.18 0.17 0.18 0.18 0.17 0.17 0.18 0.16 0.16 0.15 0.15 0.14 0.14 0.13 0.14 0.14 0.14 0.13 0.12 0.12 0.12 0.12 0.12 0.13 0.14 0.14 0.13 0.14 0.13 0.14 0.16 0.16 0.16 0.16 0.16 0.16 0.15 0.13 0.11 0.09 0.09 0.12 0.13 0.13 0.13 0.13 0.13
0.34 0.34 0.34 0.35 0.36 0.38 0.38 0.39 0.39 0.39 0.38 0.38 0.37 0.36 0.35 0.34 0.33 0.32 0.31 0.30 0.29 0.28 0.25 0.24 0.23 0.22 0.21 0.21 0.20 0.20 0.21 0.20 0.20 0.19 0.18 0.18 0.17 0.16 0.16 0.16 0.16 0.16 0.15 0.15 0.16 0.15 0.14 0.14 0.14 0.13 0.13 0.13 0.13 0.13 0.12 0.11 0.11 0.10 0.10 0.10 0.09 0.09 0.10 0.10 0.11 0.12 0.13 0.13 0.14 0.14 0.14 0.14 0.14 0.15 0.15 0.14 0.11 0.10 0.09 0.10 0.10 0.13 0.13 0.13 0.13
0.35 0.35 0.36 0.37 0.38 0.38 0.38 0.38 0.37 0.37 0.36 0.36 0.36 0.35 0.33 0.32 0.31 0.30 0.28 0.27 0.26 0.25 0.23 0.21 0.20 0.20 0.19 0.19 0.18 0.18 0.19 0.18 0.18 0.17 0.16 0.16 0.15 0.15 0.15 0.14 0.14 0.14 0.14 0.14 0.14 0.14 0.13 0.13 0.13 0.12 0.12 0.12 0.12 0.11 0.11 0.10 0.10 0.10 0.09 0.09 0.09 0.09 0.09 0.09 0.09 0.10 0.11 0.12 0.13 0.13 0.12 0.13 0.13 0.13 0.14 0.13 0.13 0.13 0.10 0.10 0.10 0.10 0.10 0.11 0.14
0.35 0.35 0.37 0.37 0.37 0.37 0.37 0.36 0.35 0.35 0.34 0.34 0.33 0.32 0.31 0.30 0.28 0.27 0.26 0.25 0.23 0.21 0.20 0.19 0.18 0.18 0.17 0.17 0.17 0.17 0.17 0.16 0.16 0.15 0.15 0.14 0.14 0.13 0.13 0.13 0.13 0.13 0.13 0.13 0.13 0.13 0.13 0.12 0.12 0.12 0.11 0.11 0.11 0.11 0.10 0.10 0.10 0.10 0.09 0.09 0.09 0.08 0.08 0.08 0.08 0.08 0.09 0.09 0.10 0.10 0.11 0.12 0.11 0.11 0.12 0.13 0.13 0.12 0.11 0.11 0.11 0.11 0.11 0.10 0.12
0.35 0.35 0.35 0.35 0.35 0.35 0.35 0.33 0.33 0.32 0.32 0.31 0.30 0.30 0.29 0.27 0.26 0.25 0.24 0.23 0.21 0.20 0.18 0.17 0.17 0.17 0.16 0.16 0.16 0.16 0.16 0.15 0.14 0.14 0.14 0.13 0.13 0.13 0.13 0.13 0.12 0.12 0.12 0.12 0.12 0.12 0.12 0.11 0.11 0.11 0.11 0.10 0.10 0.10 0.10 0.10 0.10 0.09 0.09 0.09 0.08 0.08 0.08 0.08 0.08 0.08 0.08 0.08 0.09 0.10 0.10 0.11 0.11 0.12 0.12 0.13 0.12 0.12 0.12 0.11 0.11 0.12 0.12 0.11 0.13
0.34 0.33 0.33 0.33 0.32 0.32 0.31 0.31 0.31 0.30 0.29 0.29 0.28 0.28 0.27 0.25 0.25 0.23 0.22 0.21 0.19 0.18 0.17 0.16 0.16 0.15 0.15 0.15 0.15 0.15 0.15 0.14 0.14 0.13 0.13 0.12 0.12 0.12 0.12 0.12 0.12 0.11 0.11 0.11 0.11 0.11 0.11 0.11 0.10 0.10 0.10 0.10 0.10 0.10 0.10 0.10 0.09 0.09 0.09 0.08 0.08 0.08 0.08 0.08 0.08 0.08 0.08 0.08 0.08 0.08 0.08 0.09 0.10 0.11 0.12 0.12 0.13 0.13 0.12 0.11 0.11 0.13 0.11 0.10 0.12
0.33 0.32 0.32 0.31 0.30 0.30 0.29 0.29 0.29 0.28 0.27 0.27 0.26 0.25 0.24 0.22 0.22 0.21 0.20 0.19 0.17 0.16 0.15 0.14 0.14 0.14 0.14 0.14 0.14 0.14 0.14 0.14 0.13 0.12 0.12 0.11 0.11 0.11 0.11 0.11 0.11 0.10 0.10 0.10 0.10 0.10 0.10 0.10 0.10 0.10 0.09 0.09 0.09 0.09 0.09 0.09 0.09 0.09 0.08 0.08 0.08 0.08 0.08 0.09 0.09 0.09 0.09 0.09 0.09 0.08 0.08 0.08 0.08 0.08 0.09 0.10 0.11 0.12 0.11 0.11 0.11 0.12 0.12 0.10 0.11
0.32 0.31 0.30 0.29 0.29 0.28 0.28 0.28 0.27 0.26 0.26 0.25 0.23 0.23 0.22 0.20 0.20 0.19 0.18 0.16 0.15 0.14 0.14 0.13 0.13 0.13 0.12 0.12 0.12 0.13 0.13 0.12 0.12 0.12 0.11 0.10 0.10 0.10 0.10 0.10 0.10 0.10 0.10 0.10 0.10 0.10 0.09 0.09 0.09 0.09 0.09 0.08 0.08 0.08 0.08 0.08 0.08 0.08 0.08 0.08 0.08 0.08 0.08 0.08 0.09 0.09 0.08 0.08 0.08 0.08 0.08 0.08 0.08 0.09 0.08 0.08 0.09 0.10 0.11 0.11 0.11 0.10 0.10 0.11 0.10
0.30 0.29 0.29 0.28 0.28 0.28 0.27 0.26 0.25 0.24 0.23 0.23 0.21 0.21 0.19 0.18 0.18 0.17 0.16 0.15 0.14 0.13 0.12 0.12 0.11 0.11 0.11 0.11 0.11 0.11 0.12 0.11 0.11 0.10 0.10 0.10 0.10 0.10 0.09 0.09 0.09 0.09 0.09 0.09 0.09 0.09 0.09 0.08 0.08 0.08 0.08 0.08 0.08 0.08 0.08 0.08 0.07 0.07 0.07 0.07 0.07 0.07 0.07 0.07 0.07 0.07 0.07 0.07 0.07 0.07 0.08 0.08 0.09 0.09 0.10 0.09 0.09 0.09 0.10 0.12 0.12 0.11 0.09 0.08 0.09
0.29 0.28 0.27 0.27 0.27 0.26 0.25 0.24 0.23 0.22 0.21 0.20 0.20 0.19 0.18 0.17 0.16 0.15 0.14 0.13 0.12 0.12 0.11 0.11 0.10 0.10 0.10 0.10 0.10 0.10 0.10 0.10 0.10 0.09 0.09 0.09 0.09 0.09 0.09 0.09 0.08 0.08 0.08 0.08 0.08 0.08 0.08 0.08 0.08 0.07 0.07 0.07 0.07 0.07 0.07 0.07 0.07 0.07 0.07 0.07 0.07 0.07 0.07 0.07 0.07 0.07 0.07 0.07 0.07 0.07 0.07 0.07 0.07 0.07 0.09 0.10 0.11 0.11 0.11 0.11 0.12 0.11 0.11 0.10 0.09
0.27 0.27 0.26 0.26 0.25 0.24 0.23 0.22 0.21 0.20 0.20 0.19 0.18 0.18 0.17 0.16 0.14 0.12 0.12 0.11 0.11 0.11 0.10 0.10 0.09 0.09 0.09 0.09 0.09 0.09 0.09 0.10 0.09 0.09 0.08 0.08 0.08 0.08 0.08 0.08 0.08 0.08 0.08 0.08 0.08 0.07 0.07 0.07 0.07 0.07 0.07 0.07 0.07 0.07 0.07 0.07 0.07 0.07 0.07 0.06 0.06 0.06 0.06 0.07 0.07 0.07 0.07 0.07 0.06 0.07 0.07 0.06 0.07 0.07 0.07 0.07 0.09 0.11 0.12 0.12 0.12 0.12 0.12 0.11 0.10
0.25 0.24 0.24 0.23 0.23 0.22 0.20 0.20 0.19 0.19 0.19 0.18 0.18 0.17 0.16 0.14 0.13 0.11 0.10 0.10 0.10 0.10 0.10 0.09 0.09 0.09 0.08 0.08 0.08 0.08 0.08 0.09 0.09 0.08 0.08 0.08 0.08 0.07 0.07 0.07 0.07 0.07 0.07 0.07 0.07 0.07 0.07 0.07 0.07 0.07 0.07 0.07 0.07 0.07 0.07 0.07 0.07 0.06 0.06 0.06 0.06 0.06 0.06 0.06 0.06 0.06 0.06 0.06 0.06 0.06 0.07 0.07 0.07 0.07 0.07 0.07 0.07 0.08 0.09 0.12 0.13 0.13 0.12 0.12 0.11
0.23 0.23 0.23 0.22 0.21 0.20 0.20 0.19 0.19 0.18 0.18 0.18 0.17 0.16 0.14 0.12 0.11 0.10 0.09 0.09 0.09 0.09 0.09 0.09 0.08 0.08 0.08 0.08 0.08 0.08 0.08 0.08 0.08 0.08 0.08 0.07 0.07 0.07 0.07 0.07 0.07 0.07 0.07 0.07 0.07 0.07 0.07 0.07 0.07 0.07 0.07 0.07 0.07 0.07 0.07 0.07 0.07 0.06 0.06 0.06 0.06 0.06 0.06 0.06 0.06 0.06 0.06 0.07 0.06 0.06 0.07 0.07 0.07 0.07 0.07 0.07 0.07 0.08 0.08 0.09 0.10 0.12 0.13 0.13 0.12
0.22 0.21 0.21 0.20 0.19 0.19 0.19 0.18 0.18 0.18 0.17 0.16 0.15 0.14 0.13 0.11 0.10 0.10 0.09 0.08 0.08 0.08 0.08 0.08 0.08 0.08 0.08 0.08 0.08 0.08 0.08 0.08 0.08 0.08 0.07 0.07 0.07 0.07 0.07 0.07 0.07 0.07 0.07 0.07 0.06 0.06 0.06 0.06 0.06 0.06 0.06 0.06 0.06 0.06 0.07 0.07 0.06 0.06 0.06 0.06 0.06 0.06 0.06 0.06 0.06 0.06 0.06 0.06 0.06 0.06 0.07 0.07 0.07 0.07 0.07 0.07 0.08 0.08 0.08 0.08 0.09 0.10 0.11 0.12 0.13
0.19 0.19 0.18 0.17 0.17 0.17 0.17 0.17 0.17 0.16 0.15 0.14 0.13 0.13 0.11 0.10 0.09 0.09 0.09 0.08 0.08 0.08 0.08 0.08 0.08 0.08 0.08 0.08 0.08 0.08 0.08 0.08 0.08 0.07 0.07 0.07 0.07 0.07 0.07 0.07 0.07 0.07 0.07 0.06 0.06 0.06 0.06 0.06 0.06 0.06 0.06 0.06 0.06 0.06 0.06 0.06 0.06 0.06 0.06 0.06 0.06 0.06 0.06 0.06 0.06 0.06 0.06 0.07 0.07 0.07 0.07 0.07 0.07 0.07 0.07 0.07 0.08 0.08 0.08 0.08 0.08 0.08 0.09 0.11 0.13
0.18 0.17 0.17 0.16 0.16 0.16 0.16 0.16 0.15 0.14 0.14 0.13 0.13 0.12 0.10 0.09 0.09 0.09 0.08 0.08 0.08 0.08 0.08 0.08 0.08 0.08 0.08 0.08 0.08 0.08 0.08 0.08 0.07 0.07 0.07 0.07 0.07 0.07 0.07 0.07 0.07 0.07 0.07 0.07 0.06 0.06 0.06 0.06 0.06 0.06 0.06 0.06 0.06 0.06 0.06 0.06 0.06 0.06 0.06 0.06 0.06 0.06 0.06 0.06 0.06 0.06 0.06 0.07 0.07 0.07 0.07 0.07 0.07 0.07 0.07 0.07 0.08 0.08 0.08 0.08 0.08 0.09 0.09 0.08 0.10
0.17 0.17 0.16 0.16 0.16 0.15 0.15 0.14 0.14 0.14 0.13 0.13 0.12 0.11 0.09 0.08 0.08 0.08 0.08 0.08 0.08 0.08 0.08 0.08 0.08 0.08 0.08 0.08 0.08 0.08 0.07 0.07 0.07 0.07 0.07 0.07 0.07 0.07 0.07 0.07 0.07 0.07 0.07 0.07 0.07 0.07 0.06 0.06 0.06 0.06 0.06 0.06 0.06 0.06 0.06 0.06 0.06 0.06 0.06 0.06 0.06 0.06 0.06 0.06 0.07 0.07 0.07 0.07 0.07 0.07 0.07 0.07 0.07 0.07 0.07 0.07 0.08 0.08 0.08 0.08 0.09 0.09 0.09 0.10 0.10
0.16 0.16 0.16 0.16 0.15 0.15 0.15 0.14 0.14 0.14 0.14 0.13 0.11 0.10 0.08 0.08 0.08 0.08 0.08 0.08 0.08 0.08 0.08 0.08 0.07 0.07 0.07 0.07 0.07 0.07 0.07 0.07 0.07 0.07 0.07 0.07 0.07 0.07 0.07 0.07 0.07 0.07 0.07 0.07 0.07 0.07 0.07 0.07 0.06 0.06 0.06 0.06 0.06 0.06 0.06 0.06 0.06 0.06 0.06 0.06 0.06 0.07 0.07 0.07 0.07 0.07 0.07 0.07 0.07 0.07 0.07 0.07 0.07 0.07 0.07 0.07 0.07 0.07 0.07 0.07 0.07 0.07 0.08 0.10 0.10
0.16 0.16 0.16 0.15 0.15 0.15 0.15 0.15 0.14 0.14 0.13 0.12 0.11 0.09 0.08 0.08 0.08 0.08 0.08 0.07 0.07 0.07 0.07 0.07 0.07 0.07 0.07 0.07 0.07 0.07 0.07 0.07 0.07 0.07 0.07 0.07 0.07 0.07 0.07 0.07 0.07 0.07 0.07 0.07 0.07 0.07 0.07 0.06 0.06 0.06 0.06 0.06 0.07 0.07 0.06 0.06 0.06 0.07 0.07 0.07 0.07 0.07 0.07 0.07 0.07 0.07 0.08 0.08 0.08 0.07 0.08 0.08 0.08 0.07 0.07 0.07 0.08 0.08 0.08 0.08 0.07 0.07 0.08 0.08 0.09
0.16 0.16 0.15 0.15 0.15 0.15 0.15 0.15 0.14 0.14 0.13 0.11 0.10 0.09 0.08 0.07 0.07 0.07 0.07 0.07 0.07 0.07 0.07 0.07 0.07 0.07 0.07 0.07 0.07 0.07 0.07 0.07 0.07 0.07 0.07 0.07 0.07 0.07 0.07 0.07 0.07 0.07 0.07 0.06 0.06 0.06 0.06 0.06 0.06 0.06 0.06 0.06 0.06 0.06 0.06 0.06 0.07 0.07 0.07 0.07 0.07 0.07 0.07 0.08 0.08 0.08 0.08 0.08 0.08 0.08 0.08 0.08 0.08 0.08 0.08 0.08 0.08 0.08 0.08 0.08 0.08 0.08 0.08 0.07 0.08
0.16 0.15 0.15 0.14 0.15 0.15 0.15 0.15 0.14 0.14 0.12 0.11 0.10 0.08 0.07 0.06 0.06 0.06 0.07 0.07 0.07 0.07 0.07 0.07 0.07 0.07 0.07 0.07 0.07 0.07 0.07 0.07 0.07 0.07 0.07 0.07 0.07 0.07 0.07 0.07 0.06 0.06 0.06 0.06 0.06 0.06 0.06 0.06 0.06 0.06 0.06 0.06 0.06 0.06 0.06 0.06 0.06 0.06 0.07 0.07 0.07 0.07 0.08 0.08 0.08 0.08 0.08 0.09 0.09 0.09 0.09 0.08 0.08 0.08 0.08 0.08 0.08 0.08 0.08 0.08 0.08 0.08 0.08 0.08 0.08
0.16 0.15 0.15 0.14 0.15 0.15 0.15 0.14 0.14 0.13 0.11 0.10 0.08 0.07 0.07 0.06 0.06 0.07 0.07 0.07 0.07 0.07 0.06 0.06 0.06 0.06 0.06 0.07 0.07 0.07 0.07 0.07 0.07 0.07 0.06 0.06 0.06 0.06 0.06 0.06 0.06 0.06 0.06 0.06 0.06 0.06 0.06 0.05 0.06 0.06 0.06 0.06 0.06 0.06 0.06 0.06 0.06 0.06 0.07 0.07 0.07 0.08 0.08 0.08 0.08 0.08 0.09 0.09 0.09 0.09 0.09 0.09 0.09 0.09 0.09 0.09 0.09 0.09 0.08 0.08 0.08 0.08 0.08 0.08 0.08
0.15 0.15 0.15 0.15 0.15 0.15 0.15 0.14 0.13 0.12 0.10 0.08 0.07 0.07 0.07 0.06 0.06 0.07 0.07 0.07 0.07 0.07 0.07 0.06 0.06 0.06 0.07 0.07 0.07 0.07 0.07 0.06 0.06 0.06 0.06 0.06 0.06 0.06 0.06 0.06 0.06 0.06 0.06 0.06 0.06 0.05 0.05 0.05 0.05 0.05 0.05 0.05 0.05 0.06 0.06 0.06 0.07 0.07 0.08 0.08 0.08 0.08 0.08 0.09 0.09 0.09 0.09 0.09 0.10 0.10 0.10 0.10 0.10 0.10 0.10 0.10 0.10 0.10 0.09 0.09 0.09 0.09 0.09 0.09 0.09
0.15 0.15 0.15 0.15 0.15 0.15 0.14 0.14 0.12 0.10 0.09 0.07 0.07 0.07 0.07 0.07 0.07 0.07 0.07 0.07 0.07 0.07 0.07 0.07 0.06 0.07 0.07 0.07 0.07 0.06 0.06 0.06 0.06 0.06 0.06 0.06 0.06 0.06 0.06 0.06 0.06 0.06 0.05 0.05 0.05 0.05 0.05 0.05 0.05 0.05 0.05 0.05 0.05 0.06 0.06 0.07 0.07 0.08 0.09 0.09 0.09 0.09 0.10 0.10 0.10 0.09 0.09 0.10 0.10 0.10 0.10 0.10 0.10 0.10 0.10 0.10 0.10 0.10 0.10 0.10 0.10 0.10 0.10 0.10 0.09
0.15 0.15 0.15 0.15 0.15 0.14 0.14 0.13 0.11 0.09 0.08 0.07 0.07 0.07 0.07 0.07 0.07 0.07 0.07 0.07 0.07 0.07 0.07 0.07 0.07 0.07 0.07 0.07 0.06 0.06 0.06 0.06 0.06 0.06 0.06 0.06 0.06 0.06 0.06 0.05 0.05 0.05 0.05 0.05 0.05 0.05 0.05 0.05 0.05 0.05 0.05 0.05 0.05 0.06 0.06 0.07 0.08 0.08 0.09 0.09 0.10 0.10 0.10 0.10 0.10 0.10 0.10 0.10 0.10 0.10 0.10 0.11 0.11 0.10 0.10 0.10 0.10 0.10 0.10 0.10 0.10 0.10 0.10 0.10 0.11
0.15 0.15 0.15 0.15 0.15 0.14 0.14 0.12 0.10 0.08 0.07 0.07 0.07 0.07 0.07 0.07 0.07 0.07 0.07 0.07 0.07 0.07 0.07 0.07 0.07 0.07 0.07 0.07 0.07 0.06 0.06 0.06 0.06 0.06 0.06 0.06 0.06 0.05 0.05 0.05 0.05 0.05 0.05 0.05 0.05 0.05 0.05 0.05 0.05 0.05 0.05 0.05 0.05 0.06 0.06 0.07 0.08 0.08 0.09 0.10 0.10 0.10 0.10 0.10 0.11 0.11 0.11 0.11 0.11 0.11 0.11 0.11 0.11 0.11 0.11 0.11 0.11 0.11 0.11 0.11 0.10 0.10 0.10 0.10 0.10
0.15 0.15 0.15 0.15 0.15 0.14 0.13 0.11 0.09 0.08 0.08 0.08 0.08 0.07 0.07 0.07 0.07 0.07 0.07 0.07 0.07 0.07 0.07 0.07 0.07 0.07 0.07 0.07 0.06 0.06 0.06 0.06 0.06 0.06 0.06 0.06 0.05 0.05 0.05 0.05 0.05 0.05 0.05 0.05 0.05 0.05 0.05 0.05 0.05 0.05 0.05 0.05 0.05 0.06 0.06 0.07 0.08 0.08 0.09 0.09 0.10 0.11 0.10 0.11 0.11 0.11 0.11 0.11 0.11 0.11 0.11 0.11 0.11 0.11 0.12 0.11 0.11 0.11 0.11 0.11 0.10 0.10 0.10 0.10 0.10
0.15 0.15 0.15 0.15 0.14 0.13 0.12 0.10 0.08 0.08 0.08 0.07 0.07 0.07 0.07 0.07 0.07 0.07 0.07 0.07 0.07 0.07 0.07 0.07 0.06 0.07 0.06 0.06 0.06 0.06 0.06 0.06 0.06 0.06 0.06 0.05 0.05 0.05 0.05 0.05 0.05 0.05 0.05 0.05 0.05 0.05 0.05 0.05 0.05 0.05 0.05 0.05 0.05 0.06 0.07 0.07 0.08 0.08 0.09 0.10 0.10 0.10 0.10 0.10 0.11 0.11 0.11 0.11 0.11 0.11 0.11 0.11 0.11 0.11 0.12 0.12 0.11 0.11 0.11 0.11 0.10 0.10 0.10 0.10 0.10
0.16 0.15 0.15 0.14 0.14 0.12 0.11 0.09 0.08 0.08 0.08 0.08 0.07 0.07 0.07 0.07 0.07 0.07 0.07 0.07 0.07 0.07 0.06 0.06 0.06 0.06 0.06 0.06 0.06 0.06 0.06 0.06 0.06 0.06 0.05 0.05 0.05 0.05 0.05 0.05 0.05 0.05 0.05 0.05 0.05 0.05 0.05 0.05 0.05 0.05 0.05 0.05 0.05 0.06 0.07 0.07 0.08 0.08 0.09 0.09 0.10 0.10 0.10 0.10 0.10 0.11 0.11 0.11 0.11 0.11 0.10 0.10 0.10 0.11 0.12 0.12 0.12 0.12 0.11 0.11 0.10 0.10 0.10 0.10 0.10
0.16 0.16 0.15 0.15 0.14 0.12 0.10 0.09 0.08 0.08 0.07 0.07 0.07 0.07 0.07 0.07 0.07 0.07 0.07 0.07 0.07 0.06 0.06 0.06 0.06 0.06 0.06 0.06 0.06 0.06 0.06 0.06 0.06 0.05 0.05 0.05 0.05 0.05 0.05 0.05 0.05 0.05 0.05 0.05 0.05 0.05 0.05 0.05 0.05 0.05 0.05 0.05 0.05 0.06 0.06 0.07 0.07 0.08 0.09 0.09 0.09 0.10 0.10 0.10 0.10 0.10 0.11 0.11 0.10 0.10 0.10 0.11 0.11 0.11 0.12 0.12 0.12 0.11 0.11 0.11 0.10 0.10 0.10 0.10 0.10
0.16 0.15 0.15 0.14 0.13 0.11 0.10 0.09 0.08 0.08 0.08 0.08 0.08 0.07 0.07 0.07 0.07 0.07 0.07 0.07 0.06 0.06 0.06 0.06 0.06 0.06 0.06 0.06 0.06 0.06 0.06 0.06 0.06 0.05 0.05 0.05 0.05 0.05 0.05 0.05 0.05 0.05 0.05 0.05 0.05 0.05 0.05 0.05 0.05 0.05 0.05 0.05 0.05 0.06 0.06 0.07 0.07 0.08 0.09 0.09 0.09 0.09 0.09 0.09 0.10 0.10 0.10 0.10 0.10 0.09 0.10 0.10 0.11 0.12 0.12 0.12 0.12 0.12 0.11 0.10 0.10 0.10 0.10 0.10 0.10
0.16 0.15 0.14 0.13 0.12 0.10 0.09 0.09 0.08 0.07 0.07 0.08 0.08 0.07 0.07 0.07 0.07 0.07 0.07 0.06 0.06 0.06 0.06 0.06 0.06 0.06 0.06 0.06 0.06 0.06 0.06 0.06 0.06 0.05 0.05 0.05 0.05 0.05 0.05 0.05 0.05 0.05 0.05 0.05 0.05 0.05 0.05 0.05 0.05 0.05 0.05 0.05 0.05 0.05 0.06 0.06 0.07 0.08 0.08 0.09 0.09 0.09 0.09 0.09 0.09 0.10 0.10 0.10 0.09 0.09 0.10 0.11 0.12 0.13 0.12 0.11 0.11 0.11 0.11 0.11 0.10 0.10 0.10 0.09 0.10
0.16 0.15 0.14 0.13 0.11 0.10 0.09 0.08 0.08 0.07 0.08 0.08 0.07 0.07 0.07 0.07 0.07 0.07 0.06 0.06 0.06 0.06 0.06 0.07 0.07 0.06 0.06 0.06 0.06 0.06 0.06 0.06 0.06 0.05 0.05 0.05 0.05 0.05 0.05 0.05 0.05 0.05 0.05 0.05 0.05 0.05 0.05 0.05 0.05 0.05 0.05 0.05 0.05 0.05 0.06 0.06 0.07 0.07 0.08 0.09 0.09 0.09 0.09 0.09 0.09 0.09 0.09 0.09 0.08 0.09 0.10 0.11 0.12 0.12 0.12 0.12 0.12 0.12 0.11 0.11 0.11 0.10 0.10 0.10 0.11
0.15 0.15 0.14 0.12 0.11 0.09 0.09 0.08 0.08 0.08 0.08 0.08 0.08 0.07 0.07 0.07 0.07 0.07 0.06 0.06 0.07 0.07 0.07 0.07 0.07 0.06 0.06 0.06 0.06 0.06 0.06 0.06 0.06 0.05 0.05 0.05 0.05 0.05 0.05 0.05 0.05 0.05 0.05 0.05 0.05 0.05 0.05 0.05 0.05 0.05 0.05 0.05 0.06 0.06 0.06 0.06 0.07 0.07 0.08 0.08 0.09 0.09 0.09 0.09 0.09 0.09 0.09 0.08 0.08 0.09 0.10 0.11 0.12 0.11 0.12 0.12 0.11 0.12 0.12 0.12 0.12 0.11 0.11 0.11 0.12
0.15 0.14 0.13 0.11 0.10 0.09 0.09 0.08 0.08 0.08 0.08 0.08 0.07 0.07 0.07 0.07 0.07 0.06 0.07 0.07 0.07 0.07 0.07 0.07 0.06 0.06 0.06 0.06 0.06 0.06 0.06 0.06 0.06 0.06 0.05 0.05 0.05 0.05 0.05 0.05 0.05 0.05 0.05 0.05 0.05 0.05 0.05 0.05 0.05 0.05 0.05 0.05 0.06 0.06 0.06 0.06 0.07 0.07 0.07 0.08 0.09 0.09 0.10 0.09 0.09 0.08 0.08 0.08 0.08 0.09 0.10 0.11 0.12 0.12 0.12 0.12 0.12 0.12 0.12 0.13 0.12 0.12 0.12 0.12 0.12
0.14 0.13 0.12 0.11 0.10 0.09 0.08 0.08 0.08 0.08 0.08 0.08 0.07 0.07 0.07 0.07 0.06 0.07 0.07 0.07 0.07 0.07 0.07 0.07 0.06 0.06 0.06 0.06 0.06 0.06 0.06 0.06 0.06 0.05 0.05 0.05 0.05 0.05 0.05 0.05 0.05 0.05 0.05 0.05 0.05 0.05 0.05 0.05 0.05 0.05 0.05 0.05 0.06 0.06 0.06 0.06 0.06 0.07 0.07 0.08 0.09 0.09 0.10 0.09 0.08 0.08 0.08 0.08 0.08 0.09 0.10 0.11 0.11 0.12 0.12 0.12 0.12 0.11 0.12 0.13 0.13 0.12 0.12 0.13 0.13
0.14 0.12 0.11 0.10 0.09 0.09 0.08 0.08 0.08 0.08 0.08 0.08 0.07 0.07 0.07 0.07 0.06 0.07 0.07 0.07 0.07 0.07 0.07 0.06 0.06 0.06 0.06 0.06 0.06 0.06 0.06 0.06 0.06 0.05 0.05 0.05 0.05 0.05 0.05 0.05 0.05 0.05 0.05 0.05 0.05 0.05 0.05 0.05 0.05 0.05 0.05 0.05 0.05 0.06 0.06 0.06 0.06 0.07 0.07 0.08 0.08 0.09 0.09 0.09 0.08 0.08 0.08 0.08 0.08 0.09 0.10 0.11 0.11 0.11 0.12 0.12 0.12 0.13 0.13 0.12 0.12 0.12 0.13 0.13 0.14
0.13 0.12 0.11 0.10 0.09 0.08 0.08 0.08 0.08 0.08 0.08 0.08 0.08 0.07 0.07 0.07 0.07 0.07 0.07 0.07 0.07 0.07 0.06 0.06 0.06 0.06 0.06 0.06 0.06 0.06 0.06 0.06 0.05 0.05 0.05 0.05 0.05 0.05 0.05 0.05 0.05 0.05 0.05 0.05 0.05 0.05 0.05 0.05 0.05 0.04 0.05 0.05 0.05 0.06 0.06 0.06 0.06 0.06 0.07 0.07 0.08 0.08 0.08 0.08 0.08 0.08 0.08 0.08 0.08 0.09 0.10 0.10 0.10 0.11 0.11 0.11 0.11 0.12 0.13 0.14 0.13 0.13 0.13 0.13 0.13
0.12 0.11 0.10 0.09 0.09 0.09 0.08 0.08 0.08 0.08 0.08 0.08 0.07 0.07 0.07 0.07 0.07 0.07 0.07 0.07 0.07 0.06 0.06 0.06 0.06 0.06 0.06 0.06 0.06 0.05 0.05 0.05 0.05 0.05 0.05 0.05 0.05 0.05 0.05 0.05 0.05 0.05 0.05 0.05 0.05 0.05 0.05 0.05 0.05 0.05 0.05 0.05 0.05 0.05 0.06 0.06 0.06 0.06 0.07 0.07 0.07 0.08 0.08 0.08 0.08 0.08 0.08 0.08 0.08 0.08 0.09 0.09 0.09 0.10 0.10 0.10 0.11 0.11 0.12 0.12 0.12 0.13 0.13 0.13 0.13
0.12 0.11 0.10 0.09 0.09 0.08 0.08 0.08 0.07 0.07 0.07 0.07 0.07 0.07 0.07 0.07 0.07 0.07 0.07 0.07 0.07 0.06 0.06 0.06 0.06 0.06 0.06 0.06 0.05 0.05 0.05 0.05 0.05 0.05 0.05 0.05 0.05 0.05 0.05 0.05 0.05 0.05 0.05 0.05 0.05 0.05 0.05 0.05 0.05 0.05 0.05 0.05 0.05 0.05 0.05 0.06 0.06 0.06 0.06 0.07 0.07 0.07 0.08 0.08 0.07 0.07 0.07 0.07 0.07 0.08 0.08 0.09 0.09 0.09 0.10 0.10 0.10 0.11 0.11 0.11 0.11 0.12 0.13 0.13 0.13
0.12 0.10 0.09 0.09 0.09 0.08 0.08 0.08 0.08 0.08 0.08 0.07 0.07 0.07 0.07 0.07 0.07 0.07 0.07 0.07 0.07 0.06 0.06 0.06 0.06 0.06 0.06 0.06 0.05 0.05 0.05 0.05 0.05 0.05 0.05 0.05 0.05 0.05 0.05 0.05 0.05 0.05 0.05 0.05 0.05 0.05 0.05 0.05 0.05 0.05 0.05 0.05 0.05 0.05 0.05 0.06 0.06 0.06 0.06 0.07 0.07 0.07 0.07 0.07 0.07 0.07 0.07 0.07 0.07 0.07 0.07 0.08 0.09 0.09 0.09 0.09 0.10 0.10 0.10 0.10 0.11 0.11 0.12 0.12 0.13
0.11 0.10 0.09 0.09 0.08 0.08 0.08 0.08 0.08 0.08 0.08 0.07 0.07 0.07 0.07 0.07 0.07 0.07 0.07 0.07 0.06 0.06 0.06 0.06 0.06 0.06 0.06 0.05 0.05 0.05 0.05 0.05 0.05 0.05 0.05 0.05 0.05 0.05 0.05 0.05 0.05 0.06 0.06 0.05 0.05 0.05 0.05 0.05 0.05 0.05 0.05 0.05 0.05 0.05 0.05 0.06 0.06 0.07 0.07 0.07 0.07 0.07 0.07 0.07 0.07 0.07 0.07 0.07 0.07 0.07 0.07 0.07 0.08 0.08 0.08 0.09 0.09 0.09 0.09 0.10 0.10 0.11 0.11 0.11 0.12
0.11 0.10 0.09 0.09 0.08 0.08 0.08 0.08 0.08 0.08 0.08 0.08 0.07 0.07 0.07 0.07 0.07 0.07 0.07 0.07 0.06 0.06 0.06 0.06 0.06 0.06 0.05 0.05 0.05 0.05 0.05 0.05 0.05 0.05 0.05 0.05 0.05 0.05 0.06 0.05 0.06 0.06 0.06 0.06 0.06 0.06 0.06 0.06 0.06 0.06 0.06 0.05 0.05 0.05 0.06 0.06 0.06 0.07 0.07 0.07 0.07 0.07 0.07 0.07 0.07 0.07 0.07 0.06 0.06 0.06 0.06 0.07 0.07 0.07 0.08 0.08 0.08 0.09 0.09 0.09 0.10 0.10 0.10 0.11 0.11
0.10 0.09 0.09 0.08 0.08 0.08 0.08 0.08 0.08 0.08 0.08 0.08 0.08 0.07 0.07 0.07 0.07 0.07 0.07 0.07 0.07 0.06 0.06 0.06 0.06 0.05 0.05 0.05 0.05 0.05 0.05 0.05 0.05 0.05 0.05 0.05 0.05 0.05 0.06 0.06 0.06 0.06 0.06 0.07 0.07 0.07 0.06 0.06 0.06 0.06 0.06 0.06 0.06 0.06 0.06 0.06 0.06 0.07 0.07 0.07 0.07 0.07 0.07 0.07 0.07 0.07 0.06 0.06 0.06 0.06 0.06 0.07 0.07 0.07 0.07 0.08 0.08 0.08 0.08 0.09 0.09 0.09 0.10 0.10 0.10
Wind_Speed
24 24 24 24 25 25 25 26 26 26 26 27 27 28 28 29 30 30 31 32 33 33 34 35 35 36 37 37 38 38 38 38 39 39 39 39 40 41 41 41 42 42 43 43 44 44 45 45 46 46 46 46 46 46 47 47 47 47 47 47 47 47 46 46 45 45 45 44 43 42 42 42 42 42 41 41 40 40 39 39 39 40 40 40 41
23 23 24 24 25 25 25 26 26 26 27 27 27 28 29 29 30 31 32 33 33 34 35 35 36 37 37 38 39 39 39 39 39 39 40 40 41 41 41 42 42 42 43 43 44 44 45 45 45 45 46 46 46 47 47 47 47 47 47 47 47 47 47 46 46 45 45 44 43 43 42 42 41 40 41 41 40 39 38 39 39 40 41 41 41
23 23 24 24 25 25 25 26 26 26 27 27 27 28 29 30 31 32 33 33 34 35 35 36 37 37 38 39 39 39 39 39 40 40 40 41 41 41 42 42 43 43 43 44 44 44 45 45 45 46 46 46 47 47 47 47 47 47 47 47 47 47 46 46 45 45 45 44 44 43 42 41 40 39 40 39 39 39 40 40 40 40 40 40 41
23 23 23 24 24 25 25 25 26 26 27 27 28 28 29 30 31 32 33 34 35 35 36 37 38 38 39 39 39 39 40 40 40 41 41 41 41 42 42 43 43 44 44 44 44 44 45 45 45 46 47 47 47 48 48 48 47 47 47 47 47 47 46 46 45 45 45 45 44 43 42 42 41 40 39 39 39 40 41 40 40 40 40 40 41
22 22 23 23 24 24 24 25 26 26 26 27 28 29 30 31 32 33 34 35 36 36 37 38 39 39 39 39 40 40 40 41 41 41 42 42 42 42 43 44 44 44 44 44 45 45 45 46 46 47 47 48 48 48 48 48 48 48 47 47 47 47 47 46 46 46 46 45 45 44 43 43 42 41 41 42 40 40 40 41 41 42 42 42 42
21 22 22 23 23 24 24 25 25 26 27 28 29 30 31 32 33 34 35 36 37 37 38 39 39 40 40 40 41 41 41 41 41 42 42 42 43 44 44 44 44 45 45 45 45 45 46 47 47 48 48 48 48 48 49 48 48 48 48 48 48 48 48 47 47 46 46 46 47 46 46 45 45 44 43 43 42 42 42 42 42 42 43 43 43
22 22 22 23 24 24 25 25 26 28 29 30 30 31 32 33 34 35 36 37 38 38 39 40 40 40 41 41 41 41 41 42 42 42 43 43 44 44 45 45 45 45 45 46 46 46 47 47 48 48 48 48 49 49 48 48 49 49 49 49 49 49 49 48 48 47 47 46 46 47 47 48 48 47 46 45 45 44 44 43 43 42 43 45 45
22 23 23 24 25 25 26 27 28 29 30 31 32 32 33 34 35 36 37 38 38 39 40 40 40 41 41 41 41 41 42 42 43 43 43 44 44 45 45 45 45 45 46 46 46 47 48 48 48 48 49 49 49 49 49 49 49 49 49 49 49 49 49 49 49 48 47 47 47 47 48 48 48 49 49 48 47 47 46 45 45 45 45 46 46
23 24 24 25 26 27 28 29 30 30 31 32 33 34 35 36 37 37 38 39 39 40 41 41 41 41 41 41 42 42 42 43 43 44 44 44 45 45 45 46 46 46 47 47 47 48 48 48 48 49 49 49 49 49 49 50 49 49 49 49 49 49 49 50 50 50 49 48 48 48 48 48 49 49 50 49 49 50 49 47 46 46 47 46 46
25 25 26 26 27 28 29 30 31 31 32 33 34 35 36 37 38 39 39 40 41 41 42 42 42 42 42 42 43 43 43 43 44 44 45 45 45 46 46 46 46 47 47 47 48 48 48 48 49 49 49 49 49 50 50 50 50 50 50 50 50 50 50 50 51 51 51 50 50 50 50 49 49 49 49 50 50 51 51 50 49 48 49 49 48
26 26 27 28 28 29 30 31 32 33 34 35 36 37 38 39 40 40 41 42 42 43 43 43 43 43 43 43 44 44 44 44 45 45 45 46 46 46 46 47 47 47 48 48 48 48 49 49 49 49 50 50 50 50 50 50 51 51 51 51 51 51 51 51 51 52 52 52 52 52 51 51 51 51 51 51 51 52 52 52 51 51 51 51 50
27 28 28 29 30 30 31 33 34 35 36 37 38 39 40 40 41 41 42 43 43 43 43 43 43 44 44 44 44 45 45 45 45 46 46 47 47 47 47 47 48 48 48 48 49 49 50 50 50 50 50 50 51 51 51 51 52 52 52 52 52 52 52 52 52 52 53 53 53 53 52 52 52 53 53 53 53 54 54 54 53 53 53 53 52
27 28 29 30 31 32 34 35 36 37 37 38 39 40 41 41 42 43 44 44 44 44 44 44 44 45 45 45 45 45 46 46 46 46 47 47 48 48 48 48 49 49 49 49 50 50 50 51 51 51 51 51 51 52 52 52 52 52 52 52 52 52 53 53 53 53 53 54 54 54 54 54 54 54 54 55 55 56 56 57 56 56 56 55 54
27 28 29 31 32 34 35 36 37 38 39 39 40 41 42 43 44 44 45 45 45 45 45 45 45 45 46 46 46 46 46 47 47 47 48 48 48 49 49 49 49 50 50 50 51 51 51 51 52 52 52 52 52 52 53 53 53 53 53 53 53 53 53 53 54 54 54 55 55 55 55 56 56 56 56 56 57 57 58 58 58 58 58 58 57
28 29 31 32 33 35 36 37 38 39 40 41 42 43 44 45 45 45 46 46 46 46 46 46 46 46 47 47 47 47 47 47 47 48 48 49 49 49 50 50 50 51 51 51 51 52 52 52 52 52 52 53 53 53 53 53 53 53 53 53 53 53 53 54 54 54 55 55 56 56 56 56 57 57 57 58 58 58 59 59 59 59 60 60 59
30 31 33 34 35 36 37 38 39 40 41 42 43 44 45 46 46 46 46 46 46 46 46 46 46 46 47 47 47 47 47 47 47 48 49 49 49 50 50 50 51 51 51 51 51 52 52 52 52 52 52 52 53 53 53 53 53 53 53 53 53 54 54 54 54 55 55 55 56 56 56 57 57 57 57 58 58 59 60 60 60 61 61 61 61
32 33 34 35 36 37 38 39 40 41 42 43 44 45 46 47 47 47 47 46 46 47 46 46 46 46 46 46 46 47 47 47 47 48 48 49 49 49 50 50 50 51 51 51 51 52 52 52 52 52 52 52 53 53 53 53 53 53 53 53 53 54 54 54 54 55 55 55 56 56 57 57 57 58 58 58 58 59 59 60 61 61 62 63 63
33 35 36 37 38 39 40 40 41 42 43 44 45 46 47 47 47 47 47 47 46 46 46 46 46 46 46 46 46 46 47 47 47 48 48 48 49 49 49 50 50 51 51 51 52 52 52 52 52 52 52 52 52 53 53 53 53 53 53 53 53 53 54 54 54 55 55 55 56 56 57 57 58 58 59 59 60 60 60 60 61 62 63 64 64
34 36 38 38 39 40 41 41 42 43 44 46 46 47 47 47 47 46 46 46 46 46 46 46 46 46 46 46 46 47 47 47 48 48 48 48 49 49 49 50 50 51 51 51 52 52 52 52 52 52 52 53 53 52 52 52 52 52 52 53 53 54 54 54 55 55 56 56 57 57 57 58 58 59 59 60 60 61 62 62 62 63 63 64 65
36 37 39 39 40 41 42 43 44 45 46 46 47 48 47 47 46 46 46 46 46 46 46 46 46 46 47 47 47 47 47 48 48 48 48 48 49 49 50 50 51 51 51 52 52 52 52 52 52 52 52 52 52 52 52 52 52 52 52 53 54 54 55 55 56 56 56 57 58 58 58 59 59 60 60 61 61 62 63 63 63 64 64 65 66
37 38 39 39 40 41 42 43 44 45 46 47 47 47 47 47 47 47 47 47 47 47 47 47 47 47 47 47 47 47 47 48 48 48 48 49 49 49 50 50 51 51 51 52 52 52 52 52 52 52 52 52 52 52 52 52 52 53 53 54 54 55 56 56 56 57 57 58 58 59 59 60 60 61 61 61 62 62 63 64 64 65 66 66 66
36 37 38 39 40 41 42 43 44 45 45 46 46 47 47 47 47 47 47 46 46 46 46 46 46 46 47 47 47 47 47 47 47 48 48 48 49 49 50 50 50 51 51 51 51 51 52 52 52 52 52 52 52 53 53 53 53 54 54 55 55 56 56 57 57 58 58 58 59 59 60 60 60 61 62 62 63 63 63 64 65 66 67 67 68
34 35 36 37 38 39 39 40 41 42 43 43 44 44 44 44 44 44 44 45 45 45 45 45 45 46 46 46 46 46 46 47 47 47 48 48 49 49 49 50 50 50 50 50 51 51 51 51 52 52 52 52 52 53 53 54 54 55 55 55 56 56 57 57 58 58 58 58 59 60 60 60 61 62 62 62 63 63 63 64 65 66 67 69 69
34 35 36 37 37 37 38 38 39 40 41 42 42 42 42 42 41 41 42 42 42 42 43 43 43 44 44 44 44 45 45 45 46 46 46 47 47 48 48 48 48 49 49 49 50 50 51 51 51 51 52 52 52 53 53 54 54 55 55 56 56 56 57 57 58 58 59 59 60 60 61 61 62 62 63 63 63 64 64 65 66 66 67 68 69
35 36 37 37 37 37 37 38 39 40 41 41 41 41 40 40 40 40 40 40 39 39 39 40 40 40 41 41 41 42 42 43 43 43 44 44 45 45 46 46 47 47 48 48 49 49 49 50 50 51 51 52 52 53 53 54 54 54 55 56 56 56 57 57 58 58 59 60 60 61 61 61 62 63 64 64 64 65 66 66 67 67 67 68 68
36 37 37 37 37 38 38 39 40 41 41 40 40 40 39 39 39 39 38 38 38 38 38 38 38 39 39 40 40 40 41 41 42 42 42 43 44 44 45 46 46 46 47 47 48 48 49 49 50 51 51 52 52 52 53 53 54 54 55 55 55 56 57 57 58 58 59 59 60 61 61 62 63 64 64 64 65 65 66 67 68 68 68 69 69
37 38 38 38 38 38 39 40 41 41 40 40 40 39 39 38 38 38 38 38 37 37 38 38 39 39 39 39 40 40 40 41 41 41 42 43 43 44 45 45 46 46 47 47 48 49 49 50 50 51 51 52 52 52 53 53 54 54 54 55 55 56 57 57 58 58 59 60 60 61 62 63 64 65 65 66 66 66 67 67 68 68 68 69 70
39 39 39 39 39 39 40 41 41 41 40 40 39 38 38 38 38 38 38 37 37 37 38 38 38 39 39 39 39 40 40 40 41 41 42 43 43 44 45 46 46 47 47 48 48 49 50 50 51 51 52 52 52 53 53 53 54 54 55 55 56 57 57 58 58 59 60 60 61 62 63 64 65 66 67 68 68 67 67 68 68 67 67 68 69
42 40 39 39 39 40 41 41 41 40 40 39 39 38 38 38 38 38 37 37 37 37 38 38 38 38 38 39 39 39 40 40 41 41 42 43 43 44 45 45 46 46 47 48 49 49 50 50 51 51 52 52 52 52 53 54 54 54 54 55 56 57 58 58 59 60 60 61 62 62 63 64 65 66 67 68 68 68 68 67 67 67 67 67 66
42 40 39 39 40 40 41 41 41 40 39 39 38 38 38 38 37 37 37 37 37 38 38 38 38 38 38 39 39 39 40 40 41 41 42 43 43 44 44 45 46 46 47 48 49 49 50 50 51 51 51 52 52 52 53 54 54 54 54 55 56 56 57 58 58 59 60 60 60 61 62 63 65 65 66 66 67 67 67 67 66 66 65 65 65
41 40 40 40 40 41 41 41 40 40 39 38 38 38 38 38 37 37 37 37 37 38 38 38 38 39 39 39 39 39 40 40 41 42 42 43 43 44 45 46 46 47 48 48 49 49 49 50 50 51 51 51 51 51 53 53 53 54 54 54 55 55 56 56 57 57 57 58 58 59 60 61 61 62 63 63 64 64 65 65 65 65 65 64 64
41 40 40 41 41 42 41 41 40 40 39 38 38 38 38 38 38 37 37 37 37 38 38 38 38 39 39 39 40 40 40 41 42 42 43 43 44 45 46 46 47 47 48 48 48 49 49 49 49 50 50 50 50 51 52 52 52 52 52 52 52 53 53 53 54 54 54 55 55 56 56 57 58 58 59 59 60 60 61 61 62 63 63 63 63
41 41 41 42 42 42 41 41 40 39 39 38 38 38 38 38 38 37 37 37 37 38 38 38 38 39 39 39 40 40 41 41 41 42 43 43 45 46 46 46 47 47 48 48 48 48 49 49 49 50 50 49 49 50 51 51 50 50 50 49 49 49 50 50 50 51 51 52 53 53 53 54 54 56 56 56 56 56 57 58 59 59 59 60 60
41 41 42 42 42 42 41 41 40 39 39 38 38 38 38 38 37 37 37 37 38 38 38 38 38 39 39 39 40 40 41 41 42 42 43 44 45 46 46 47 47 47 47 48 48 48 48 48 48 49 49 48 48 49 49 49 48 48 48 47 47 47 47 47 48 48 49 50 50 50 51 51 52 52 52 52 53 53 53 53 54 54 55 55 56
42 42 43 42 42 42 41 41 40 40 39 38 38 38 38 37 37 37 37 37 38 38 38 38 38 39 39 39 40 40 40 41 42 43 44 44 45 46 46 46 46 47 47 47 47 47 47 47 47 47 47 47 46 46 47 46 46 45 45 44 44 43 44 44 45 45 46 47 47 47 48 49 49 48 48 48 48 48 49 49 49 49 50 50 50
43 43 43 42 42 42 41 41 40 39 39 38 38 38 38 37 37 37 37 37 38 38 38 38 39 39 39 39 40 40 41 42 42 43 44 45 45 46 46 46 46 46 46 47 46 46 46 46 45 45 45 45 44 44 44 44 43 43 42 41 41 41 41 42 43 43 43 44 44 44 45 46 45 44 44 44 44 44 44 44 44 44 45 44 45
43 43 43 42 42 41 41 41 40 40 39 38 38 38 37 38 37 37 37 37 37 38 38 38 39 39 39 39 40 40 41 42 42 43 44 45 45 46 46 46 46 46 46 46 45 44 44 44 43 44 43 43 42 42 42 42 41 41 40 39 39 39 39 40 41 41 41 41 41 42 43 43 42 41 40 40 40 40 40 40 40 40 40 40 40
44 43 43 42 42 41 41 41 40 40 39 38 38 37 37 37 37 37 37 37 38 38 38 38 39 39 39 39 40 41 42 42 42 43 44 45 45 46 45 45 45 45 45 44 43 42 42 42 42 42 42 41 40 40 41 40 39 39 38 37 37 37 38 38 39 39 38 38 39 40 40 40 39 37 37 37 37 37 37 36 36 36 37 37 37
44 44 43 43 42 41 41 41 40 39 39 38 37 37 37 37 37 37 37 37 38 38 38 39 39 39 39 40 41 41 42 42 43 44 44 45 45 45 45 45 44 44 43 42 42 41 41 41 41 41 40 40 39 38 38 38 37 37 36 35 35 35 36 36 36 36 36 36 36 37 38 37 35 34 35 35 36 35 35 34 33 33 34 34 34
45 44 43 43 42 41 41 41 40 39 39 38 37 37 37 38 37 38 38 38 38 38 39 39 39 39 40 40 41 41 42 43 43 44 44 45 45 45 44 44 43 42 42 41 41 40 40 40 39 39 39 38 37 36 35 35 35 35 34 33 33 33 34 34 34 34 33 34 34 35 35 34 33 32 33 34 34 33 33 32 32 32 32 32 32
45 44 43 43 42 41 41 41 40 39 39 38 37 37 38 38 38 38 38 38 39 39 39 39 39 39 40 40 41 42 43 43 43 44 44 44 44 44 44 43 42 41 41 41 40 40 39 38 37 37 36 36 35 34 34 34 34 34 33 32 32 32 32 33 33 32 31 32 32 32 32 32 31 31 31 31 31 31 30 29 30 30 30 30 30
45 44 43 43 42 41 41 41 40 39 39 38 38 38 38 38 38 38 38 39 39 39 39 39 40 40 40 41 41 42 43 43 43 44 44 44 43 43 42 42 41 40 40 40 40 39 37 36 35 35 34 34 33 33 33 33 33 32 32 32 31 32 32 32 31 30 30 30 31 30 30 30 29 29 29 28 28 28 27 26 27 28 28 28 28
45 44 43 43 42 42 41 41 40 39 39 38 38 38 38 38 39 39 39 39 39 39 39 40 40 40 41 41 42 42 43 43 43 43 43 43 43 42 41 41 40 40 40 39 38 37 35 34 34 33 33 33 33 32 32 32 31 31 31 31 31 32 32 31 30 29 29 29 29 28 27 28 27 26 26 25 24 23 23 24 24 25 26 25 24
46 44 43 43 42 42 41 40 40 39 39 38 38 38 38 39 39 39 39 39 39 40 40 40 40 40 41 41 41 42 42 42 43 43 43 42 41 41 40 40 39 39 38 37 36 35 34 33 33 32 32 32 32 32 31 31 30 29 30 31 31 31 31 31 29 27 27 27 27 26 26 25 25 24 23 22 21 19 19 21 22 23 23 22 22
46 44 43 42 42 42 41 40 40 39 39 38 38 39 39 40 40 39 39 40 40 40 40 40 40 41 41 41 41 42 42 42 42 42 41 41 40 39 39 38 38 37 36 36 35 34 33 32 32 32 32 32 32 31 30 29 29 29 29 30 31 30 30 30 28 27 27 27 26 26 24 23 22 21 20 19 19 18 17 18 19 21 21 21 20
46 45 44 43 42 41 41 40 40 40 39 39 39 39 40 40 40 40 39 40 40 40 40 40 40 40 41 41 41 41 41 41 41 41 40 40 39 38 38 37 37 36 35 35 34 33 32 32 31 31 31 31 31 30 29 28 28 28 28 29 29 28 28 28 27 26 27 26 25 24 23 21 19 18 17 16 16 16 16 16 17 18 19 20 20
46 45 44 43 42 41 41 40 40 40 40 39 40 40 40 40 40 40 40 40 39 40 40 40 40 40 40 40 40 40 41 41 40 40 39 38 38 37 37 36 36 35 34 34 33 32 32 31 31 30 30 30 30 30 29 28 27 27 28 28 27 25 25 25 25 25 25 25 23 23 21 19 18 16 15 14 13 13 13 14 15 16 17 18 19
46 45 44 42 42 41 41 40 40 40 40 40 40 40 40 40 40 40 40 40 39 39 40 40 40 40 40 40 40 40 40 40 39 39 38 38 37 37 36 35 35 34 33 33 32 32 31 31 30 30 29 29 29 29 28 28 28 28 28 26 24 24 24 23 22 23 23 22 21 20 18 17 16 14 13 12 10 9 10 11 12 14 15 16 17
46 45 44 43 42 41 41 41 41 41 41 40 40 41 41 40 40 40 40 39 39 39 39 39 39 39 39 39 39 39 39 39 38 38 37 37 37 36 36 35 34 33 33 33 32 31 31 30 29 28 28 28 28 28 28 28 28 29 28 26 24 24 24 22 22 22 21 20 19 18 16 15 14 12 11 10 9 7 7 8 10 11 12 14 15
46 45 44 43 42 42 41 41 41 41 41 41 41 41 41 40 40 40 39 39 39 39 39 39 39 38 38 38 38 38 38 38 37 37 36 37 37 36 36 35 34 33 33 33 32 32 31 30 28 28 28 28 28 28 29 29 28 28 28 26 25 25 24 22 21 21 19 18 17 16 15 14 13 11 10 9 8 7 6 7 8 9 10 12 14
46 45 44 42 42 42 41 41 41 41 41 41 41 41 41 40 40 39 39 39 38 38 38 38 38 37 38 38 38 38 38 37 37 36 36 36 35 35 35 34 33 33 32 32 32 31 30 30 29 28 28 28 28 28 29 28 27 27 27 26 25 24 23 21 20 19 17 16 15 15 14 13 12 11 9 9 8 8 7 6 7 8 9 10 12
Wind_Direction
275 274 274 274 274 273 274 274 275 276 277 278 278 279 279 279 280 280 280 281 281 281 280 280 280 281 281 281 281 281 280 281 280 280 281 280 281 281 281 281 281 281 281 281 280 280 280 280 280 280 280 280 279 279 278 278 278 278 277 277 277 277 276 276 275 276 276 276 276 275 274 274 273 272 271 270 269 267 265 264 263 262 261 260 260
275 275 275 275 275 275 275 275 276 277 278 279 279 279 280 280 280 280 281 281 282 282 281 281 281 281 281 281 281 280 279 279 279 279 280 280 281 281 281 282 282 281 281 281 281 280 280 280 280 280 280 280 279 279 279 278 278 278 278 277 276 276 276 275 275 275 275 275 276 275 274 274 271 269 270 270 268 266 265 264 263 262 261 260 259
276 276 275 275 276 276 276 276 277 278 278 278 279 280 280 280 280 281 281 282 283 283 282 281 282 282 282 281 280 280 279 279 279 279 280 280 280 281 281 282 282 282 282 282 281 281 281 280 280 280 280 280 280 279 279 279 278 278 278 277 277 276 275 275 275 275 275 275 275 274 273 273 271 269 268 267 266 266 266 266 265 263 262 260 259
277 276 276 276 277 277 277 278 278 278 278 279 280 280 280 281 282 282 282 283 283 284 284 282 283 283 282 281 281 280 279 279 279 280 280 281 281 281 282 282 283 282 282 282 282 282 281 281 281 281 281 281 280 279 279 279 278 278 277 277 277 276 275 275 274 274 274 274 273 272 272 271 269 268 268 266 265 265 266 266 264 263 262 261 260
278 277 278 277 278 278 279 279 279 279 279 279 281 281 281 282 283 283 283 283 284 285 285 284 283 283 282 281 281 280 280 280 280 281 281 281 281 282 283 283 283 283 283 283 283 283 283 283 282 282 281 281 280 279 279 278 278 278 277 277 276 276 275 275 274 273 273 272 271 271 271 270 268 269 270 268 265 264 264 264 264 264 264 262 261
278 278 278 278 279 279 280 281 281 280 280 280 281 283 283 283 284 284 284 284 285 285 286 285 284 283 282 282 281 281 281 281 281 281 281 282 282 283 283 283 283 283 283 283 283 283 283 283 283 282 281 281 280 279 278 278 278 277 277 276 276 275 275 274 273 273 272 271 270 270 269 269 269 270 270 268 266 265 264 263 263 263 263 263 262
279 279 279 280 280 280 280 281 282 282 282 281 282 284 285 285 286 286 286 286 286 286 287 286 284 283 283 282 282 282 282 282 282 282 282 282 283 283 284 283 283 283 283 283 282 282 283 283 282 282 281 280 280 279 278 278 278 277 277 276 275 275 274 273 273 272 272 271 270 269 268 268 269 268 268 267 267 266 264 263 263 262 262 263 263
279 279 280 280 281 281 281 281 282 282 283 282 282 284 286 287 287 287 287 287 287 287 288 287 285 284 284 283 283 283 283 283 283 283 283 283 284 284 284 283 283 283 283 283 282 282 283 283 282 282 281 280 279 279 278 278 278 277 277 276 275 274 273 273 272 272 271 271 270 269 269 269 268 268 267 267 267 266 265 264 263 262 262 262 263
280 280 280 280 281 281 281 281 282 283 283 283 283 285 287 288 288 288 288 288 288 289 289 288 286 285 285 285 285 284 284 284 284 284 284 284 284 284 284 283 283 283 283 283 282 283 283 283 282 282 281 281 280 279 279 278 278 277 277 276 275 274 273 272 272 271 271 271 270 270 270 269 268 268 267 267 266 266 265 265 264 264 263 262 262
280 280 280 280 280 281 281 282 282 283 283 284 284 286 287 288 289 289 289 289 290 290 289 288 287 287 286 286 286 286 285 285 285 285 285 285 285 284 284 284 284 283 283 283 283 283 283 283 282 282 281 281 280 280 279 279 278 278 277 276 275 274 273 272 272 272 271 271 270 270 270 269 269 268 267 267 266 266 266 265 264 264 263 262 262
280 280 280 280 281 281 282 282 283 284 285 286 286 287 288 289 290 290 290 291 291 290 289 289 288 287 287 287 287 286 286 286 286 286 286 285 285 285 284 284 284 284 284 283 283 283 283 283 282 282 281 281 280 280 279 279 278 277 277 276 275 274 274 273 273 272 272 271 271 270 269 269 268 268 268 267 267 266 266 266 265 264 263 263 262
280 281 281 282 283 283 284 285 286 286 287 288 288 288 289 290 290 291 291 291 291 290 290 289 289 288 288 287 287 286 286 286 286 286 286 286 286 285 285 284 284 284 284 283 283 283 283 283 282 282 281 281 280 279 279 278 278 277 276 275 275 274 274 274 273 272 272 271 271 270 269 268 268 267 267 267 267 267 267 267 266 265 264 262 262
282 283 284 285 285 286 287 287 288 288 289 290 290 290 291 291 291 292 291 291 291 290 290 290 289 289 288 288 287 286 286 286 286 286 286 286 286 285 285 285 284 284 284 283 284 284 283 283 282 282 281 281 280 279 278 278 277 276 275 275 274 274 273 273 272 272 271 271 270 270 269 268 267 267 267 267 266 267 267 266 266 266 265 263 262
283 284 285 287 287 288 289 289 289 290 290 291 292 291 292 292 292 292 292 291 291 290 290 290 290 289 289 288 288 287 287 286 286 286 287 286 286 285 285 285 284 284 284 284 284 284 283 283 282 282 281 281 280 279 278 277 277 276 275 274 274 273 273 272 272 271 271 270 270 269 269 268 268 267 267 266 266 266 266 266 267 266 265 265 264
284 286 287 288 289 289 290 290 291 291 291 292 293 293 293 293 293 293 292 291 291 291 290 291 290 290 290 289 289 288 287 287 287 287 287 286 286 285 285 285 284 284 284 284 284 284 283 283 282 282 281 281 280 279 278 277 277 276 275 274 274 273 273 272 271 271 270 270 269 269 268 268 268 267 267 266 266 266 266 266 266 266 266 265 264
286 287 289 290 290 290 290 290 291 292 292 293 294 294 294 294 294 293 292 292 292 291 291 291 291 291 290 290 289 289 288 287 287 287 287 287 286 286 285 285 285 285 284 284 284 284 283 283 282 282 281 280 280 279 278 277 277 276 275 274 274 273 273 272 271 271 270 270 269 269 269 268 268 267 267 267 266 266 266 265 265 266 266 266 265
288 288 289 289 290 290 290 290 291 293 293 294 295 295 295 295 294 294 293 292 292 292 291 291 291 291 290 290 289 289 288 287 287 288 288 287 287 286 286 286 286 285 285 285 285 284 284 283 283 282 281 281 280 279 279 278 277 276 276 275 274 273 273 272 271 270 270 270 269 269 269 268 268 268 267 267 267 266 266 265 265 265 265 266 266
290 291 290 290 291 291 291 291 292 294 294 295 296 296 296 295 294 293 293 292 292 291 291 291 291 290 290 290 289 289 288 288 288 288 288 288 288 287 287 287 287 286 286 286 285 285 284 284 283 283 282 281 281 280 279 279 278 277 276 275 274 273 273 272 271 271 270 270 270 269 269 269 269 268 268 267 267 266 266 266 265 265 264 265 265
293 293 292 292 292 291 292 293 293 295 295 296 296 296 296 295 294 293 293 292 291 291 290 290 290 290 290 290 290 289 289 289 289 289 289 289 288 288 288 288 288 287 287 287 286 286 285 285 284 284 283 282 282 281 280 279 278 277 276 275 274 273 273 272 272 271 271 271 270 270 270 269 269 269 269 268 267 266 266 266 265 265 264 264 264
297 296 295 294 293 293 294 294 295 296 296 297 297 297 296 294 293 293 293 292 291 291 291 291 291 290 290 290 290 290 290 290 289 290 289 289 289 289 288 288 288 288 288 287 287 286 286 285 285 284 283 283 282 281 280 279 278 277 276 275 274 274 273 273 272 272 271 271 271 270 270 270 270 269 269 269 268 267 266 265 265 265 264 264 264
300 299 297 296 296 295 295 296 296 297 298 298 297 297 296 295 294 293 293 292 292 292 291 291 291 291 291 291 290 290 290 290 290 289 289 289 289 289 289 288 288 288 288 287 287 287 286 286 285 284 284 283 282 281 280 279 278 277 276 276 275 274 274 273 273 273 272 272 271 271 271 270 270 270 269 269 268 268 267 266 265 265 264 264 264
304 302 301 299 298 297 297 298 299 299 299 299 298 298 297 296 294 293 293 293 292 292 292 291 291 291 290 290 290 290 290 289 289 289 289 289 289 289 289 289 289 288 288 288 288 287 287 286 285 285 284 283 282 281 281 280 279 278 277 276 276 275 274 274 273 273 273 272 272 271 271 271 270 270 269 269 269 268 267 267 266 265 265 264 264
310 307 305 303 301 301 301 302 302 302 302 302 301 300 299 298 296 295 294 293 293 292 292 291 291 290 290 290 290 290 290 290 290 290 290 290 290 290 290 290 290 289 289 289 288 288 287 287 286 285 284 283 283 282 281 280 279 278 277 277 276 276 275 274 274 273 273 273 272 272 271 271 271 270 270 269 269 268 267 267 266 266 265 264 264
313 311 308 306 305 305 305 305 306 306 306 305 304 303 302 300 299 298 297 296 295 295 294 293 293 292 292 292 292 292 292 292 291 291 291 292 292 292 292 291 291 291 291 290 290 289 288 287 287 286 285 284 283 283 282 281 280 279 278 277 277 276 275 274 274 274 273 273 272 272 272 272 271 271 270 270 269 268 267 267 267 266 266 265 264
315 313 311 309 308 308 308 308 308 308 308 306 305 304 303 302 301 300 299 299 298 298 297 297 296 296 296 295 295 295 294 294 294 294 294 294 294 294 293 293 293 292 292 291 291 290 289 289 288 287 286 285 284 283 282 281 280 279 279 278 277 276 275 275 274 274 273 273 273 272 272 272 271 271 271 270 269 269 268 267 267 266 266 266 265
315 314 313 311 310 310 309 310 310 310 309 307 306 305 304 303 302 302 301 300 300 300 299 299 299 298 298 298 298 297 297 297 296 296 296 296 296 295 295 294 294 293 293 292 292 291 290 290 289 288 287 286 285 284 283 282 281 280 279 278 277 276 276 275 275 274 274 273 273 273 272 272 271 271 270 270 270 269 268 268 267 266 266 265 265
315 315 314 312 311 311 310 311 311 310 308 307 307 306 304 303 303 302 302 301 301 301 300 300 300 299 299 299 299 299 298 298 298 298 297 297 297 296 296 296 295 295 294 293 293 292 291 290 290 289 288 287 286 285 284 283 282 281 279 278 277 277 276 276 275 275 274 274 274 273 273 273 272 271 271 270 270 269 268 268 267 266 266 265 264
315 315 314 312 311 311 311 312 311 310 308 307 307 306 305 304 303 302 302 301 301 301 301 301 301 300 300 300 299 299 299 299 299 299 298 298 298 298 297 297 296 296 295 294 293 293 292 291 291 290 289 288 287 286 285 284 283 281 280 279 278 278 277 277 277 276 276 275 275 274 274 274 273 272 272 271 270 269 269 268 267 266 265 265 264
315 314 314 312 312 312 312 312 311 310 309 308 307 306 305 304 304 303 302 302 302 302 301 302 301 301 301 301 301 300 300 300 300 300 300 299 299 299 298 298 298 297 296 295 295 294 293 292 292 291 290 289 288 287 286 285 283 282 281 280 280 279 279 278 278 277 277 276 276 275 275 274 274 273 272 271 270 269 268 267 266 265 264 264 263
316 314 314 313 312 312 313 312 311 310 309 308 307 306 306 305 304 304 303 303 302 302 302 302 301 301 302 302 302 301 301 301 301 301 301 301 301 300 300 300 299 299 298 297 296 295 295 294 293 292 291 290 289 288 287 285 284 283 282 281 281 280 279 279 278 278 278 277 277 277 276 275 274 273 273 272 271 269 268 267 266 265 264 263 262
316 315 314 313 313 313 313 312 311 310 309 308 307 306 306 305 305 304 304 303 303 303 302 302 302 302 302 302 302 302 302 302 302 302 302 302 302 302 301 301 301 300 300 299 298 297 296 295 294 293 292 291 290 289 288 286 285 284 283 282 281 281 280 280 279 279 279 279 279 278 278 277 276 275 274 272 271 270 269 267 265 264 262 261 260
317 316 315 314 314 313 312 311 311 310 309 308 307 306 306 305 305 304 304 304 304 303 303 303 303 302 302 302 302 302 303 303 303 303 303 303 303 303 303 302 302 301 301 300 299 298 297 296 295 294 293 292 291 291 289 287 286 285 284 283 282 282 282 281 280 280 281 281 281 281 280 279 277 276 274 273 271 270 269 268 266 264 262 261 259
317 316 315 315 315 314 313 312 311 310 309 308 307 306 306 305 305 304 304 304 304 304 304 304 303 303 303 303 303 303 303 304 304 304 304 304 304 304 304 303 303 303 302 301 300 299 299 298 297 296 295 294 293 292 290 288 287 286 285 284 283 283 283 283 282 282 282 283 283 283 282 281 279 277 275 273 271 270 269 267 266 264 262 260 258
317 317 316 316 315 314 313 312 311 310 309 308 308 307 306 306 305 305 305 304 304 304 304 304 304 304 304 304 304 304 304 305 305 305 305 305 305 305 305 305 304 304 303 302 301 301 300 299 298 297 296 295 294 293 291 290 288 287 286 284 284 284 285 284 284 284 284 284 285 285 283 282 281 279 276 274 272 270 269 267 266 264 262 260 258
318 317 317 316 315 314 314 313 312 311 310 309 308 307 307 306 306 305 305 305 305 305 305 305 305 305 305 305 305 305 305 306 306 306 306 306 306 306 306 306 305 305 304 303 303 302 301 300 300 299 297 296 295 294 293 291 290 288 287 285 285 285 286 286 285 286 286 287 288 287 285 284 282 280 276 274 272 271 269 267 265 263 261 259 256
318 317 317 316 316 315 314 313 312 311 310 309 308 308 307 306 306 306 306 305 305 305 305 305 305 305 305 306 306 306 306 307 307 307 307 307 307 307 307 307 306 306 305 305 304 303 302 301 301 300 298 297 297 296 294 293 291 290 288 286 286 286 287 287 287 287 288 289 289 290 288 286 284 281 277 274 273 271 269 267 264 262 260 257 254
318 318 317 317 316 315 314 313 313 311 310 309 309 308 307 307 306 306 306 306 306 306 306 306 306 306 306 307 307 307 307 307 308 308 308 308 308 309 309 308 307 307 307 306 305 304 304 302 301 301 299 298 298 297 295 294 293 291 289 287 287 287 287 287 288 288 289 290 291 292 291 288 285 281 277 274 273 271 268 265 263 260 257 255 252
319 318 318 317 316 315 314 314 313 311 310 310 309 308 308 307 307 307 307 306 306 306 306 307 307 307 307 307 308 308 308 308 309 309 309 309 309 310 310 309 309 308 308 307 307 306 305 304 302 302 301 299 298 298 297 295 293 292 289 288 288 288 288 288 288 289 290 291 293 294 293 291 286 281 276 275 274 272 268 264 261 258 255 253 252
319 318 318 317 316 315 314 314 312 311 311 310 309 308 308 307 307 307 307 307 306 307 307 307 307 307 308 308 308 309 309 309 309 310 310 310 310 310 310 310 310 309 309 308 308 307 306 305 304 302 301 300 299 299 298 296 295 293 291 289 289 289 289 289 290 290 291 293 294 296 296 293 288 282 278 276 274 272 268 263 259 256 254 253 252
319 318 318 317 316 315 314 313 312 311 311 310 309 309 308 308 308 308 307 307 307 307 307 308 308 308 308 308 309 309 309 309 310 310 310 310 311 311 311 311 311 310 310 310 309 308 307 306 305 303 302 302 301 301 300 298 297 295 293 291 290 291 291 291 292 292 293 295 296 297 298 297 291 285 281 278 276 272 267 261 257 255 253 253 252
319 318 317 317 316 315 314 313 313 312 311 311 310 309 308 308 308 308 307 307 307 308 308 308 308 308 308 308 309 309 309 310 310 311 311 311 311 311 311 311 311 311 311 311 310 309 308 307 306 304 303 303 303 302 301 300 299 298 295 293 291 291 292 293 294 293 294 297 298 299 300 299 294 288 284 281 277 272 266 259 254 252 251 251 250
319 318 317 317 316 315 314 313 313 312 311 311 310 309 308 308 307 307 308 308 308 308 308 308 308 308 308 309 309 310 310 310 311 311 311 311 312 312 312 312 312 312 311 311 311 311 309 308 307 306 305 305 304 304 303 302 301 299 297 295 293 291 293 294 295 294 295 297 298 300 301 300 297 293 288 284 279 272 264 256 253 250 249 250 250
319 318 317 316 316 315 314 313 313 312 311 311 310 309 308 308 307 308 308 308 308 308 308 308 308 308 308 309 310 310 310 311 311 311 311 311 312 312 312 312 312 312 312 312 312 312 311 309 309 308 307 307 306 306 305 304 302 301 299 297 295 293 294 295 294 294 295 296 298 299 300 300 300 298 292 287 282 274 262 254 251 249 247 249 248
318 318 317 316 315 315 314 313 312 312 311 311 310 309 308 307 307 308 309 309 308 308 308 308 308 309 309 310 310 310 311 311 311 312 312 312 312 312 312 313 313 312 312 312 313 313 312 311 311 310 309 309 308 307 306 305 304 302 302 300 298 296 295 295 293 292 293 295 297 298 299 300 301 301 298 290 282 274 264 254 250 247 245 245 243
318 317 317 316 315 314 313 313 312 312 311 311 310 309 308 308 308 309 309 309 308 308 308 308 308 309 309 310 310 311 311 311 312 312 312 312 312 312 312 313 313 313 313 313 313 313 313 312 312 312 311 310 309 308 307 306 306 305 304 303 301 298 296 295 291 289 290 293 296 297 298 299 301 303 303 295 282 271 265 257 249 245 242 240 237
318 317 317 316 315 314 313 312 312 311 311 311 310 309 309 308 309 310 309 309 309 308 308 309 309 309 310 310 311 311 311 312 312 312 312 312 312 312 312 312 313 313 313 313 313 314 313 313 313 312 311 310 309 308 307 308 308 308 308 306 303 299 297 295 292 289 289 291 293 295 297 298 299 301 303 301 287 273 265 258 249 243 239 235 233
318 317 317 316 315 314 313 312 312 312 312 311 311 310 309 309 310 310 310 309 309 309 309 309 309 310 310 311 311 311 312 312 312 312 312 312 312 311 311 312 313 313 313 313 314 314 313 313 312 312 311 310 310 309 308 309 310 310 310 308 304 301 300 298 293 290 289 288 290 292 294 296 297 297 300 302 295 277 263 256 248 242 238 234 232
318 317 316 316 315 313 313 312 312 312 312 312 311 311 310 310 310 310 310 310 309 309 309 309 309 310 311 311 311 312 312 312 312 312 312 312 312 312 311 312 312 313 313 313 314 313 313 312 311 311 311 310 310 310 310 310 310 311 312 311 307 305 304 300 295 293 290 287 286 289 291 292 292 292 295 300 299 283 262 252 245 240 237 234 232
318 317 316 315 314 313 313 312 312 312 312 312 311 311 311 311 311 311 310 310 309 309 310 309 310 310 311 311 312 312 312 313 312 312 312 312 312 311 311 311 311 312 312 312 312 312 312 311 311 311 311 311 310 310 310 310 310 311 313 313 309 307 305 302 299 296 292 286 284 285 286 287 286 285 287 293 297 291 269 253 246 240 235 233 231
318 317 316 315 314 313 313 312 312 312 312 312 311 311 311 311 311 311 311 310 310 310 310 310 310 310 311 312 312 313 313 313 313 313 313 312 312 312 310 310 310 311 311 311 311 311 311 311 311 311 310 310 309 309 310 310 310 311 313 313 310 307 305 302 300 298 292 286 283 281 281 282 281 278 279 282 288 291 280 260 250 244 237 234 231
317 317 316 315 314 313 313 312 312 312 312 312 312 312 312 312 312 311 311 310 310 310 310 310 310 311 312 312 313 313 313 313 313 313 313 313 313 313 311 311 310 310 311 311 312 312 312 312 311 311 311 310 309 310 310 311 310 311 313 313 311 307 305 303 301 297 291 285 282 278 276 277 275 272 270 271 275 280 280 270 257 246 239 236 232